Time,TemperatureF,DewpointF,PressureIn,WindDirection,WindDirectionDegrees,WindSpeedMPH,WindSpeedGustMPH,Humidity,HourlyPrecipIn,Conditions,Clouds,dailyrainin,SoftwareType,DateUTC
2013-06-09 00:00:00,60.3,46.8,30.18,NE,45,0.0,0.0,61,0.00,CLR,,0.00,WeatherDisplay:10.37,2013-06-09 05:00:00,
2013-06-09 00:05:00,59.7,46.2,30.18,NE,45,0.0,0.0,61,0.00,CLR,,0.00,WeatherDisplay:10.37,2013-06-09 05:05:00,
2013-06-09 00:10:00,59.4,46.8,30.18,NE,45,0.0,0.0,63,0.00,CLR,,0.00,WeatherDisplay:10.37,2013-06-09 05:10:00,
2013-06-09 00:15:00,59.0,46.4,30.17,NE,45,0.0,0.0,63,0.00,CLR,,0.00,WeatherDisplay:10.37,2013-06-09 05:15:00,
2013-06-09 00:20:00,58.6,46.5,30.17,NE,45,0.0,0.0,64,0.00,CLR,,0.00,WeatherDisplay:10.37,2013-06-09 05:20:00,
2013-06-09 00:25:00,58.5,46.7,30.17,NE,45,0.0,0.0,65,0.00,CLR,,0.00,WeatherDisplay:10.37,2013-06-09 05:25:00,
2013-06-09 00:30:00,58.3,46.6,30.18,NE,45,0.0,0.0,65,0.00,CLR,,0.00,WeatherDisplay:10.37,2013-06-09 05:30:00,
2013-06-09 00:35:00,58.1,46.4,30.18,NE,45,0.0,0.0,65,0.00,CLR,,0.00,WeatherDisplay:10.37,2013-06-09 05:35:00,
2013-06-09 00:40:00,58.1,46.8,30.18,NE,45,0.0,0.0,66,0.00,CLR,,0.00,WeatherDisplay:10.37,2013-06-09 05:40:00,
2013-06-09 00:45:00,58.5,47.5,30.17,NE,45,0.0,0.0,67,0.00,CLR,,0.00,WeatherDisplay:10.37,2013-06-09 05:45:00,
2013-06-09 00:50:00,58.7,47.7,30.17,NE,45,0.0,0.0,67,0.00,CLR,,0.00,WeatherDisplay:10.37,2013-06-09 05:50:00,
2013-06-09 00:55:00,59.2,48.2,30.18,NE,45,0.0,0.0,67,0.00,CLR,,0.00,WeatherDisplay:10.37,2013-06-09 05:55:00,
2013-06-09 01:00:00,59.5,48.6,30.18,NE,45,0.0,0.0,67,0.00,CLR,,0.00,WeatherDisplay:10.37,2013-06-09 06:00:00,
2013-06-09 01:05:00,59.9,48.9,30.18,NE,42,0.0,0.0,67,0.00,CLR,,0.00,WeatherDisplay:10.37,2013-06-09 06:05:00,
2013-06-09 01:10:00,60.3,48.4,30.17,NNE,30,0.0,0.0,65,0.00,CLR,,0.00,WeatherDisplay:10.37,2013-06-09 06:10:00,
2013-06-09 01:20:00,60.4,48.2,30.17,NNE,22,0.0,0.0,64,0.00,CLR,,0.00,WeatherDisplay:10.37,2013-06-09 06:20:00,
2013-06-09 01:25:00,60.3,48.0,30.17,NNE,22,0.0,0.0,64,0.00,CLR,,0.00,WeatherDisplay:10.37,2013-06-09 06:25:00,
2013-06-09 01:30:00,60.3,48.0,30.17,NNE,22,0.0,0.0,64,0.00,CLR,,0.00,WeatherDisplay:10.37,2013-06-09 06:30:00,
2013-06-09 01:35:00,60.3,48.0,30.17,NNE,22,0.0,0.0,64,0.00,CLR,,0.00,WeatherDisplay:10.37,2013-06-09 06:35:00,
2013-06-09 01:40:00,59.9,47.7,30.17,NNE,22,0.0,0.0,64,0.00,CLR,,0.00,WeatherDisplay:10.37,2013-06-09 06:40:00,
2013-06-09 01:45:00,59.7,47.9,30.17,NNE,22,0.0,0.0,65,0.00,CLR,,0.00,WeatherDisplay:10.37,2013-06-09 06:45:00,
2013-06-09 01:50:00,59.4,48.0,30.17,NNE,22,0.0,0.0,66,0.00,CLR,,0.00,WeatherDisplay:10.37,2013-06-09 06:50:00,
2013-06-09 01:55:00,58.8,47.5,30.17,NNE,22,0.0,0.0,66,0.00,CLR,,0.00,WeatherDisplay:10.37,2013-06-09 06:55:00,
2013-06-09 02:00:00,58.5,47.1,30.17,NNE,22,0.0,0.0,66,0.00,CLR,,0.00,WeatherDisplay:10.37,2013-06-09 07:00:00,
2013-06-09 02:10:00,58.5,47.5,30.17,NNE,22,0.0,0.0,67,0.00,CLR,,0.00,WeatherDisplay:10.37,2013-06-09 07:10:00,
2013-06-09 02:20:00,58.5,48.3,30.16,NNE,22,0.0,0.0,69,0.00,CLR,,0.00,WeatherDisplay:10.37,2013-06-09 07:20:00,
2013-06-09 02:25:00,58.5,48.3,30.16,NNE,22,0.0,0.0,69,0.00,CLR,,0.00,WeatherDisplay:10.37,2013-06-09 07:25:00,
2013-06-09 02:30:00,58.5,48.3,30.16,NNE,22,0.0,0.0,69,0.00,CLR,,0.00,WeatherDisplay:10.37,2013-06-09 07:30:00,
2013-06-09 02:35:00,58.9,49.2,30.16,NNE,22,0.0,0.0,70,0.00,CLR,,0.00,WeatherDisplay:10.37,2013-06-09 07:35:00,
2013-06-09 02:40:00,59.2,49.4,30.16,NNE,22,0.0,0.0,70,0.00,CLR,,0.00,WeatherDisplay:10.37,2013-06-09 07:40:00,
2013-06-09 02:50:00,59.7,49.9,30.15,NNE,22,0.0,0.0,70,0.00,CLR,,0.00,WeatherDisplay:10.37,2013-06-09 07:50:00,
2013-06-09 02:55:00,59.7,49.9,30.16,NNE,22,0.0,0.0,70,0.00,CLR,,0.00,WeatherDisplay:10.37,2013-06-09 07:55:00,
2013-06-09 03:00:00,59.5,49.7,30.16,ENE,62,0.0,0.0,70,0.00,CLR,,0.00,WeatherDisplay:10.37,2013-06-09 08:00:00,
2013-06-09 03:05:00,59.7,49.9,30.16,East,90,0.0,0.0,70,0.00,CLR,,0.00,WeatherDisplay:10.37,2013-06-09 08:05:00,
2013-06-09 03:10:00,59.4,49.6,30.16,East,90,0.0,0.0,70,0.00,CLR,,0.00,WeatherDisplay:10.37,2013-06-09 08:10:00,
2013-06-09 03:15:00,59.2,49.4,30.16,East,90,0.0,0.0,70,0.00,CLR,,0.00,WeatherDisplay:10.37,2013-06-09 08:15:00,
2013-06-09 03:20:00,59.1,49.7,30.16,East,90,0.0,0.0,71,0.00,CLR,,0.00,WeatherDisplay:10.37,2013-06-09 08:20:00,
2013-06-09 03:30:00,59.0,50.0,30.16,East,90,0.0,0.0,72,0.00,CLR,,0.00,WeatherDisplay:10.37,2013-06-09 08:30:00,
2013-06-09 03:40:00,58.6,49.6,30.16,East,90,0.0,0.0,72,0.00,CLR,,0.00,WeatherDisplay:10.37,2013-06-09 08:40:00,
2013-06-09 03:45:00,58.5,49.8,30.16,East,90,0.0,0.0,73,0.00,CLR,,0.00,WeatherDisplay:10.37,2013-06-09 08:45:00,
2013-06-09 03:50:00,58.5,49.8,30.16,East,90,0.0,0.0,73,0.00,CLR,,0.00,WeatherDisplay:10.37,2013-06-09 08:50:00,
2013-06-09 04:00:00,58.5,49.8,30.16,East,90,0.0,0.0,73,0.00,CLR,,0.00,WeatherDisplay:10.37,2013-06-09 09:00:00,
2013-06-09 04:05:00,58.5,49.8,30.16,East,90,0.0,0.0,73,0.00,CLR,,0.00,WeatherDisplay:10.37,2013-06-09 09:05:00,
2013-06-09 04:10:00,58.1,49.9,30.16,East,90,0.0,0.0,74,0.00,CLR,,0.00,WeatherDisplay:10.37,2013-06-09 09:10:00,
2013-06-09 04:15:00,58.1,49.9,30.16,East,90,0.0,0.0,74,0.00,CLR,,0.00,WeatherDisplay:10.37,2013-06-09 09:15:00,
2013-06-09 04:20:00,58.1,50.2,30.17,East,90,0.0,0.0,75,0.00,CLR,,0.00,WeatherDisplay:10.37,2013-06-09 09:20:00,
2013-06-09 04:25:00,57.9,50.1,30.17,East,90,0.0,0.0,75,0.00,CLR,,0.00,WeatherDisplay:10.37,2013-06-09 09:25:00,
2013-06-09 04:30:00,58.1,50.5,30.17,East,90,0.0,0.0,76,0.00,CLR,,0.00,WeatherDisplay:10.37,2013-06-09 09:30:00,
2013-06-09 04:35:00,58.1,50.6,30.17,East,90,0.0,0.0,76,0.00,CLR,,0.00,WeatherDisplay:10.37,2013-06-09 09:35:00,
2013-06-09 04:40:00,58.1,50.6,30.17,East,90,0.0,0.0,76,0.00,CLR,,0.00,WeatherDisplay:10.37,2013-06-09 09:40:00,
2013-06-09 04:45:00,58.5,51.3,30.17,East,90,0.0,0.0,77,0.00,CLR,,0.00,WeatherDisplay:10.37,2013-06-09 09:45:00,
2013-06-09 04:50:00,58.6,51.4,30.17,East,90,0.0,0.0,77,0.00,CLR,,0.00,WeatherDisplay:10.37,2013-06-09 09:50:00,
2013-06-09 05:00:00,58.6,51.4,30.17,East,90,0.0,0.0,77,0.00,CLR,,0.00,WeatherDisplay:10.37,2013-06-09 10:00:00,
2013-06-09 05:05:00,58.6,51.4,30.17,East,90,0.0,0.0,77,0.00,CLR,,0.00,WeatherDisplay:10.37,2013-06-09 10:05:00,
2013-06-09 05:10:00,58.5,51.3,30.17,East,90,0.0,0.0,77,0.00,CLR,,0.00,WeatherDisplay:10.37,2013-06-09 10:10:00,
2013-06-09 05:20:00,58.5,51.6,30.18,East,90,0.0,0.0,78,0.00,CLR,,0.00,WeatherDisplay:10.37,2013-06-09 10:20:00,
2013-06-09 05:25:00,58.6,52.1,30.17,East,90,0.0,0.0,79,0.00,CLR,,0.00,WeatherDisplay:10.37,2013-06-09 10:25:00,
2013-06-09 05:30:00,59.2,52.7,30.18,East,90,0.0,0.0,79,0.00,CLR,,0.00,WeatherDisplay:10.37,2013-06-09 10:30:00,
2013-06-09 05:35:00,59.5,53.4,30.17,East,90,0.0,0.0,80,0.00,CLR,,0.00,WeatherDisplay:10.37,2013-06-09 10:35:00,
2013-06-09 05:40:00,59.9,53.7,30.17,East,90,0.0,0.0,80,0.00,CLR,,0.00,WeatherDisplay:10.37,2013-06-09 10:40:00,
2013-06-09 05:45:00,60.3,54.1,30.18,East,90,0.0,0.0,80,0.00,CLR,,0.00,WeatherDisplay:10.37,2013-06-09 10:45:00,
2013-06-09 05:50:00,60.4,54.2,30.18,East,90,0.0,0.0,80,0.00,CLR,,0.00,WeatherDisplay:10.37,2013-06-09 10:50:00,
2013-06-09 05:55:00,61.0,54.8,30.18,East,90,0.0,0.0,80,0.00,CLR,,0.00,WeatherDisplay:10.37,2013-06-09 10:55:00,
2013-06-09 06:00:00,61.2,54.9,30.18,East,81,0.0,0.0,80,0.00,CLR,,0.00,WeatherDisplay:10.37,2013-06-09 11:00:00,
2013-06-09 06:05:00,61.2,54.9,30.18,ENE,58,0.0,0.0,80,0.00,CLR,,0.00,WeatherDisplay:10.37,2013-06-09 11:05:00,
2013-06-09 06:10:00,61.2,54.7,30.17,NE,45,0.0,0.0,79,0.00,CLR,,0.00,WeatherDisplay:10.37,2013-06-09 11:10:00,
2013-06-09 06:20:00,61.5,54.9,30.18,NE,45,0.0,0.0,79,0.00,CLR,,0.00,WeatherDisplay:10.37,2013-06-09 11:20:00,
2013-06-09 06:25:00,61.7,55.5,30.17,NE,45,0.0,0.0,80,0.00,CLR,,0.00,WeatherDisplay:10.37,2013-06-09 11:25:00,
2013-06-09 06:30:00,62.1,55.5,30.17,NE,45,0.0,0.0,79,0.00,CLR,,0.00,WeatherDisplay:10.37,2013-06-09 11:30:00,
2013-06-09 06:35:00,62.1,55.5,30.17,NE,45,0.0,0.0,79,0.00,CLR,,0.00,WeatherDisplay:10.37,2013-06-09 11:35:00,
2013-06-09 06:40:00,62.5,55.9,30.17,NE,45,0.0,0.0,79,0.00,CLR,,0.00,WeatherDisplay:10.37,2013-06-09 11:40:00,
2013-06-09 06:50:00,63.3,57.1,30.17,NE,45,0.0,0.0,80,0.00,CLR,,0.00,WeatherDisplay:10.37,2013-06-09 11:50:00,
2013-06-09 07:00:00,64.0,57.7,30.17,East,80,0.0,0.0,80,0.00,CLR,,0.00,WeatherDisplay:10.37,2013-06-09 12:00:00,
2013-06-09 07:05:00,64.6,57.9,30.17,ENE,74,0.0,0.0,79,0.00,CLR,,0.00,WeatherDisplay:10.37,2013-06-09 12:05:00,
2013-06-09 07:10:00,65.7,59.0,30.17,ENE,68,0.0,0.0,79,0.00,CLR,,0.00,WeatherDisplay:10.37,2013-06-09 12:10:00,
2013-06-09 07:15:00,66.9,59.8,30.17,ENE,78,0.0,0.0,78,0.00,CLR,,0.00,WeatherDisplay:10.37,2013-06-09 12:15:00,
2013-06-09 07:20:00,68.0,60.2,30.17,ENE,65,0.0,0.0,76,0.00,CLR,,0.00,WeatherDisplay:10.37,2013-06-09 12:20:00,
2013-06-09 07:30:00,70.0,60.9,30.17,ESE,114,0.0,0.0,73,0.00,CLR,,0.00,WeatherDisplay:10.37,2013-06-09 12:30:00,
2013-06-09 07:35:00,70.6,61.1,30.17,SE,133,0.0,0.0,72,0.00,CLR,,0.00,WeatherDisplay:10.37,2013-06-09 12:35:00,
2013-06-09 07:40:00,71.2,60.5,30.16,ESE,120,0.0,0.0,69,0.00,CLR,,0.00,WeatherDisplay:10.37,2013-06-09 12:40:00,
2013-06-09 07:50:00,72.2,61.0,30.17,SSE,161,0.0,0.0,68,0.00,CLR,,0.00,WeatherDisplay:10.37,2013-06-09 12:50:00,
2013-06-09 07:55:00,72.3,60.3,30.16,South,173,0.0,0.0,66,0.00,CLR,,0.00,WeatherDisplay:10.37,2013-06-09 12:55:00,
2013-06-09 08:05:00,72.3,60.3,30.16,SE,144,0.0,0.0,66,0.00,CLR,,0.00,WeatherDisplay:10.37,2013-06-09 13:05:00,
2013-06-09 08:10:00,72.3,60.3,30.16,SE,144,0.0,0.0,66,0.00,CLR,,0.00,WeatherDisplay:10.37,2013-06-09 13:10:00,
2013-06-09 08:15:00,72.9,60.8,30.16,SSE,151,0.0,0.0,66,0.00,CLR,,0.00,WeatherDisplay:10.37,2013-06-09 13:15:00,
2013-06-09 08:20:00,73.6,61.1,30.16,SSE,153,0.0,0.0,65,0.00,CLR,,0.00,WeatherDisplay:10.37,2013-06-09 13:20:00,
2013-06-09 08:25:00,74.2,61.2,30.17,SSE,158,0.0,0.0,64,0.00,CLR,,0.00,WeatherDisplay:10.37,2013-06-09 13:25:00,
2013-06-09 08:30:00,74.3,60.4,30.17,SSE,158,0.0,0.0,62,0.00,CLR,,0.00,WeatherDisplay:10.37,2013-06-09 13:30:00,
2013-06-09 08:35:00,74.1,60.3,30.17,SSE,153,0.0,0.0,62,0.00,CLR,,0.00,WeatherDisplay:10.37,2013-06-09 13:35:00,
2013-06-09 08:40:00,74.1,60.7,30.17,SE,145,0.0,0.0,63,0.00,CLR,,0.00,WeatherDisplay:10.37,2013-06-09 13:40:00,
2013-06-09 08:45:00,74.7,60.3,30.16,SSE,148,0.0,0.0,61,0.00,CLR,,0.00,WeatherDisplay:10.37,2013-06-09 13:45:00,
2013-06-09 08:50:00,74.9,60.6,30.16,SSE,158,0.0,0.0,61,0.00,CLR,,0.00,WeatherDisplay:10.37,2013-06-09 13:50:00,
2013-06-09 08:55:00,75.0,60.7,30.16,SSE,158,0.0,0.0,61,0.00,CLR,,0.00,WeatherDisplay:10.37,2013-06-09 13:55:00,
2013-06-09 09:00:00,75.2,60.4,30.16,SSE,158,0.0,0.0,60,0.00,CLR,,0.00,WeatherDisplay:10.37,2013-06-09 14:00:00,
2013-06-09 09:05:00,75.2,60.4,30.16,SSE,160,0.0,0.0,60,0.00,CLR,,0.00,WeatherDisplay:10.37,2013-06-09 14:05:00,
2013-06-09 09:10:00,75.2,60.4,30.16,SSE,151,0.0,0.0,60,0.00,CLR,,0.00,WeatherDisplay:10.37,2013-06-09 14:10:00,
2013-06-09 09:20:00,75.7,60.4,30.16,SSE,157,0.0,0.0,59,0.00,CLR,,0.00,WeatherDisplay:10.37,2013-06-09 14:20:00,
2013-06-09 09:25:00,75.7,60.3,30.16,SSE,164,0.0,0.0,59,0.00,CLR,,0.00,WeatherDisplay:10.37,2013-06-09 14:25:00,
2013-06-09 09:30:00,76.1,60.3,30.16,South,173,0.0,0.0,58,0.00,CLR,,0.00,WeatherDisplay:10.37,2013-06-09 14:30:00,
2013-06-09 09:35:00,76.4,60.0,30.16,SSE,154,0.0,0.0,57,0.00,CLR,,0.00,WeatherDisplay:10.37,2013-06-09 14:35:00,
2013-06-09 09:45:00,77.4,60.4,30.16,East,101,0.0,0.0,56,0.00,CLR,,0.00,WeatherDisplay:10.37,2013-06-09 14:45:00,
2013-06-09 09:50:00,77.9,60.4,30.15,SE,141,0.0,0.0,55,0.00,CLR,,0.00,WeatherDisplay:10.37,2013-06-09 14:50:00,
2013-06-09 10:00:00,79.2,60.6,30.15,South,180,0.0,0.0,53,0.00,CLR,,0.00,WeatherDisplay:10.37,2013-06-09 15:00:00,
2013-06-09 10:05:00,80.2,60.5,30.15,South,173,0.0,0.0,51,0.00,CLR,,0.00,WeatherDisplay:10.37,2013-06-09 15:05:00,
2013-06-09 10:10:00,80.1,59.2,30.15,South,173,0.0,0.0,49,0.00,CLR,,0.00,WeatherDisplay:10.37,2013-06-09 15:10:00,
2013-06-09 10:20:00,81.3,59.7,30.15,SE,130,0.0,0.0,48,0.00,CLR,,0.00,WeatherDisplay:10.37,2013-06-09 15:20:00,
2013-06-09 10:30:00,81.7,58.9,30.14,South,179,0.0,2.0,46,0.00,CLR,,0.00,WeatherDisplay:10.37,2013-06-09 15:30:00,
2013-06-09 10:35:00,82.5,59.6,30.14,SSE,168,0.0,2.0,46,0.00,CLR,,0.00,WeatherDisplay:10.37,2013-06-09 15:35:00,
2013-06-09 10:40:00,83.1,60.2,30.14,SE,130,0.0,0.0,46,0.00,CLR,,0.00,WeatherDisplay:10.37,2013-06-09 15:40:00,
2013-06-09 10:50:00,84.6,59.6,30.13,South,186,0.0,0.0,43,0.00,CLR,,0.00,WeatherDisplay:10.37,2013-06-09 15:50:00,
2013-06-09 10:55:00,85.1,60.1,30.14,South,177,0.0,0.0,43,0.00,CLR,,0.00,WeatherDisplay:10.37,2013-06-09 15:55:00,
2013-06-09 11:05:00,86.2,58.3,30.14,SSE,154,0.0,0.0,39,0.00,CLR,,0.00,WeatherDisplay:10.37,2013-06-09 16:05:00,
2013-06-09 11:10:00,86.4,57.0,30.14,South,170,0.0,0.0,37,0.00,CLR,,0.00,WeatherDisplay:10.37,2013-06-09 16:10:00,
2013-06-09 11:20:00,86.9,55.2,30.14,South,181,0.0,0.0,34,0.00,CLR,,0.00,WeatherDisplay:10.37,2013-06-09 16:20:00,
2013-06-09 11:25:00,86.5,54.0,30.14,SSE,161,0.0,0.0,33,0.00,CLR,,0.00,WeatherDisplay:10.37,2013-06-09 16:25:00,
2013-06-09 11:35:00,85.3,52.9,30.13,South,191,1.0,6.0,33,0.00,CLR,,0.00,WeatherDisplay:10.37,2013-06-09 16:35:00,
2013-06-09 11:40:00,84.9,51.8,30.13,South,187,1.0,2.0,32,0.00,CLR,,0.00,WeatherDisplay:10.37,2013-06-09 16:40:00,
2013-06-09 11:45:00,84.9,52.6,30.13,South,182,0.0,1.0,33,0.00,CLR,,0.00,WeatherDisplay:10.37,2013-06-09 16:45:00,
2013-06-09 11:50:00,84.7,54.1,30.13,SSE,167,0.0,0.0,35,0.00,CLR,,0.00,WeatherDisplay:10.37,2013-06-09 16:50:00,
2013-06-09 11:55:00,84.4,52.9,30.13,SSE,160,0.0,0.0,34,0.00,CLR,,0.00,WeatherDisplay:10.37,2013-06-09 16:55:00,
2013-06-09 12:00:00,83.4,52.1,30.12,South,184,6.0,7.0,34,0.00,CLR,,0.00,WeatherDisplay:10.37,2013-06-09 17:00:00,
2013-06-09 12:05:00,82.9,50.8,30.13,South,186,1.0,3.0,33,0.00,CLR,,0.00,WeatherDisplay:10.37,2013-06-09 17:05:00,
2013-06-09 12:10:00,82.2,51.0,30.12,SSW,204,0.0,3.0,34,0.00,CLR,,0.00,WeatherDisplay:10.37,2013-06-09 17:10:00,
2013-06-09 12:20:00,82.2,51.8,30.12,SSW,202,0.0,2.0,35,0.00,CLR,,0.00,WeatherDisplay:10.37,2013-06-09 17:20:00,
2013-06-09 12:25:00,82.6,51.4,30.12,SE,134,0.0,0.0,34,0.00,CLR,,0.00,WeatherDisplay:10.37,2013-06-09 17:25:00,
2013-06-09 12:30:00,83.1,51.8,30.12,SSE,147,0.0,0.0,34,0.00,CLR,,0.00,WeatherDisplay:10.37,2013-06-09 17:30:00,
2013-06-09 12:40:00,82.7,51.5,30.11,SSE,167,1.0,6.0,34,0.00,CLR,,0.00,WeatherDisplay:10.37,2013-06-09 17:40:00,
2013-06-09 12:50:00,82.0,51.7,30.11,SSW,209,0.0,7.0,35,0.00,CLR,,0.00,WeatherDisplay:10.37,2013-06-09 17:50:00,
2013-06-09 12:55:00,83.3,52.8,30.11,SW,215,1.0,5.0,35,0.00,CLR,,0.00,WeatherDisplay:10.37,2013-06-09 17:55:00,
2013-06-09 13:00:00,84.9,54.2,30.11,SSW,196,2.0,6.0,35,0.00,CLR,,0.00,WeatherDisplay:10.37,2013-06-09 18:00:00,
2013-06-09 13:05:00,85.3,53.7,30.10,SSW,198,0.0,6.0,34,0.00,CLR,,0.00,WeatherDisplay:10.37,2013-06-09 18:05:00,
2013-06-09 13:10:00,85.8,54.2,30.11,SSW,193,0.0,6.0,34,0.00,CLR,,0.00,WeatherDisplay:10.37,2013-06-09 18:10:00,
2013-06-09 13:15:00,85.8,52.5,30.10,ESE,106,3.0,6.0,32,0.00,CLR,,0.00,WeatherDisplay:10.37,2013-06-09 18:15:00,
2013-06-09 13:25:00,85.2,52.8,30.10,SSE,159,0.0,0.0,33,0.00,CLR,,0.00,WeatherDisplay:10.37,2013-06-09 18:25:00,
2013-06-09 13:30:00,85.6,52.4,30.10,SE,137,0.0,0.0,32,0.00,CLR,,0.00,WeatherDisplay:10.37,2013-06-09 18:30:00,
2013-06-09 13:40:00,88.0,53.6,30.09,SSE,160,0.0,0.0,31,0.00,CLR,,0.00,WeatherDisplay:10.37,2013-06-09 18:40:00,
2013-06-09 13:45:00,89.4,53.9,30.09,SSE,165,0.0,0.0,30,0.00,CLR,,0.00,WeatherDisplay:10.37,2013-06-09 18:45:00,
2013-06-09 13:50:00,89.6,53.1,30.09,SSE,163,1.0,1.0,29,0.00,CLR,,0.00,WeatherDisplay:10.37,2013-06-09 18:50:00,
2013-06-09 14:00:00,88.7,52.4,30.09,South,179,1.0,1.0,29,0.00,CLR,,0.00,WeatherDisplay:10.37,2013-06-09 19:00:00,
2013-06-09 14:05:00,88.7,51.4,30.09,SSW,206,0.0,1.0,28,0.00,CLR,,0.00,WeatherDisplay:10.37,2013-06-09 19:05:00,
2013-06-09 14:10:00,88.0,51.7,30.08,SSE,168,0.0,0.0,29,0.00,CLR,,0.00,WeatherDisplay:10.37,2013-06-09 19:10:00,
2013-06-09 14:15:00,87.4,51.3,30.08,ESE,117,1.0,5.0,29,0.00,CLR,,0.00,WeatherDisplay:10.37,2013-06-09 19:15:00,
2013-06-09 14:20:00,88.2,52.8,30.08,ESE,113,0.0,0.0,30,0.00,CLR,,0.00,WeatherDisplay:10.37,2013-06-09 19:20:00,
2013-06-09 14:30:00,88.2,50.0,30.07,South,183,0.0,0.0,27,0.00,CLR,,0.00,WeatherDisplay:10.37,2013-06-09 19:30:00,
2013-06-09 14:40:00,89.8,54.2,30.07,South,190,0.0,0.0,30,0.00,CLR,,0.00,WeatherDisplay:10.37,2013-06-09 19:40:00,
2013-06-09 14:45:00,90.0,52.5,30.06,South,175,1.0,4.0,28,0.00,CLR,,0.00,WeatherDisplay:10.37,2013-06-09 19:45:00,
2013-06-09 14:50:00,89.8,51.3,30.06,ESE,123,0.0,4.0,27,0.00,CLR,,0.00,WeatherDisplay:10.37,2013-06-09 19:50:00,
2013-06-09 14:55:00,87.9,49.7,30.06,SE,142,3.0,4.0,27,0.00,CLR,,0.00,WeatherDisplay:10.37,2013-06-09 19:55:00,
2013-06-09 15:00:00,86.7,49.7,30.06,South,180,0.0,0.0,28,0.00,CLR,,0.00,WeatherDisplay:10.37,2013-06-09 20:00:00,
2013-06-09 15:05:00,86.4,51.3,30.06,South,191,0.0,2.0,30,0.00,CLR,,0.00,WeatherDisplay:10.37,2013-06-09 20:05:00,
2013-06-09 15:10:00,85.3,50.4,30.06,SSE,167,0.0,0.0,30,0.00,CLR,,0.00,WeatherDisplay:10.37,2013-06-09 20:10:00,
2013-06-09 15:15:00,84.6,50.6,30.06,SSE,157,1.0,2.0,31,0.00,CLR,,0.00,WeatherDisplay:10.37,2013-06-09 20:15:00,
2013-06-09 15:20:00,83.8,50.0,30.05,SSE,160,0.0,2.0,31,0.00,CLR,,0.00,WeatherDisplay:10.37,2013-06-09 20:20:00,
2013-06-09 15:25:00,84.5,51.4,30.05,SSE,148,0.0,0.0,32,0.00,CLR,,0.00,WeatherDisplay:10.37,2013-06-09 20:25:00,
2013-06-09 15:30:00,84.6,51.5,30.05,SSE,150,0.0,0.0,32,0.00,CLR,,0.00,WeatherDisplay:10.37,2013-06-09 20:30:00,
2013-06-09 15:35:00,84.0,50.1,30.05,SE,138,0.0,0.0,31,0.00,CLR,,0.00,WeatherDisplay:10.37,2013-06-09 20:35:00,
2013-06-09 15:40:00,84.4,51.3,30.05,ESE,120,0.0,0.0,32,0.00,CLR,,0.00,WeatherDisplay:10.37,2013-06-09 20:40:00,
2013-06-09 15:50:00,85.4,50.5,30.05,SSE,154,0.0,3.0,30,0.00,CLR,,0.00,WeatherDisplay:10.37,2013-06-09 20:50:00,
2013-06-09 15:55:00,84.9,50.9,30.05,South,186,0.0,3.0,31,0.00,CLR,,0.00,WeatherDisplay:10.37,2013-06-09 20:55:00,
2013-06-09 16:00:00,86.2,52.0,30.05,SSW,197,0.0,0.0,31,0.00,CLR,,0.00,WeatherDisplay:10.37,2013-06-09 21:00:00,
2013-06-09 16:05:00,87.4,51.3,30.04,SSE,166,0.0,0.0,29,0.00,CLR,,0.00,WeatherDisplay:10.37,2013-06-09 21:05:00,
2013-06-09 16:10:00,86.2,51.1,30.04,SSE,160,0.0,1.0,30,0.00,CLR,,0.00,WeatherDisplay:10.37,2013-06-09 21:10:00,
2013-06-09 16:15:00,84.9,50.0,30.04,South,169,0.0,0.0,30,0.00,CLR,,0.00,WeatherDisplay:10.37,2013-06-09 21:15:00,
2013-06-09 16:20:00,84.4,51.3,30.04,South,171,0.0,2.0,32,0.00,CLR,,0.00,WeatherDisplay:10.37,2013-06-09 21:20:00,
2013-06-09 16:30:00,83.7,50.7,30.04,SSE,160,0.0,0.0,32,0.00,CLR,,0.00,WeatherDisplay:10.37,2013-06-09 21:30:00,
2013-06-09 16:35:00,83.7,51.5,30.04,SE,143,0.0,0.0,33,0.00,CLR,,0.00,WeatherDisplay:10.37,2013-06-09 21:35:00,
2013-06-09 16:40:00,83.1,50.2,30.04,South,171,0.0,0.0,32,0.00,CLR,,0.00,WeatherDisplay:10.37,2013-06-09 21:40:00,
2013-06-09 16:45:00,82.8,49.9,30.04,South,186,0.0,0.0,32,0.00,CLR,,0.00,WeatherDisplay:10.37,2013-06-09 21:45:00,
2013-06-09 16:50:00,82.3,49.5,30.04,SSE,164,0.0,0.0,32,0.00,CLR,,0.00,WeatherDisplay:10.37,2013-06-09 21:50:00,
2013-06-09 17:00:00,82.0,50.1,30.04,South,171,0.0,0.0,33,0.00,CLR,,0.00,WeatherDisplay:10.37,2013-06-09 22:00:00,
2013-06-09 17:05:00,81.7,49.8,30.04,SSE,165,0.0,0.0,33,0.00,CLR,,0.00,WeatherDisplay:10.37,2013-06-09 22:05:00,
2013-06-09 17:10:00,81.5,49.6,30.04,SSE,150,0.0,7.0,33,0.00,CLR,,0.00,WeatherDisplay:10.37,2013-06-09 22:10:00,
2013-06-09 17:15:00,81.5,49.6,30.03,SSE,151,0.0,7.0,33,0.00,CLR,,0.00,WeatherDisplay:10.37,2013-06-09 22:15:00,
2013-06-09 17:20:00,81.6,49.7,30.03,SSE,154,0.0,0.0,33,0.00,CLR,,0.00,WeatherDisplay:10.37,2013-06-09 22:20:00,
2013-06-09 17:25:00,81.9,49.9,30.03,SE,129,0.0,0.0,33,0.00,CLR,,0.00,WeatherDisplay:10.37,2013-06-09 22:25:00,
2013-06-09 17:30:00,81.9,49.9,30.03,SE,124,0.0,5.0,33,0.00,CLR,,0.00,WeatherDisplay:10.37,2013-06-09 22:30:00,
2013-06-09 17:35:00,81.9,49.1,30.03,SE,139,0.0,0.0,32,0.00,CLR,,0.00,WeatherDisplay:10.37,2013-06-09 22:35:00,
2013-06-09 17:40:00,81.5,48.8,30.02,South,180,2.0,3.0,32,0.00,CLR,,0.00,WeatherDisplay:10.37,2013-06-09 22:40:00,
2013-06-09 17:50:00,81.2,50.2,30.02,SSE,158,0.0,0.0,34,0.00,CLR,,0.00,WeatherDisplay:10.37,2013-06-09 22:50:00,
2013-06-09 17:55:00,80.8,50.6,30.02,SSE,163,0.0,0.0,35,0.00,CLR,,0.00,WeatherDisplay:10.37,2013-06-09 22:55:00,
2013-06-09 18:00:00,80.6,50.4,30.01,ESE,116,0.0,0.0,35,0.00,CLR,,0.00,WeatherDisplay:10.37,2013-06-09 23:00:00,
2013-06-09 18:05:00,80.1,50.0,30.02,SE,135,0.0,0.0,35,0.00,CLR,,0.00,WeatherDisplay:10.37,2013-06-09 23:05:00,
2013-06-09 18:10:00,80.1,50.7,30.01,South,173,0.0,0.0,36,0.00,CLR,,0.00,WeatherDisplay:10.37,2013-06-09 23:10:00,
2013-06-09 18:15:00,80.1,50.7,30.01,South,179,0.0,0.0,36,0.00,CLR,,0.00,WeatherDisplay:10.37,2013-06-09 23:15:00,
2013-06-09 18:20:00,80.0,50.7,30.01,SSE,166,0.0,0.0,36,0.00,CLR,,0.00,WeatherDisplay:10.37,2013-06-09 23:20:00,
2013-06-09 18:30:00,79.7,50.4,30.01,SSE,158,0.0,0.0,36,0.00,CLR,,0.00,WeatherDisplay:10.37,2013-06-09 23:30:00,
2013-06-09 18:35:00,79.6,51.1,30.01,SSE,149,0.0,0.0,37,0.00,CLR,,0.00,WeatherDisplay:10.37,2013-06-09 23:35:00,
2013-06-09 18:40:00,79.2,50.6,30.01,ESE,114,0.0,0.0,37,0.00,CLR,,0.00,WeatherDisplay:10.37,2013-06-09 23:40:00,
2013-06-09 18:45:00,79.0,50.5,30.01,ENE,73,0.0,0.0,37,0.00,CLR,,0.00,WeatherDisplay:10.37,2013-06-09 23:45:00,
2013-06-09 18:50:00,78.5,50.1,30.01,South,175,0.0,0.0,37,0.00,CLR,,0.00,WeatherDisplay:10.37,2013-06-09 23:50:00,
2013-06-09 18:55:00,78.3,49.8,30.01,SE,146,0.0,0.0,37,0.00,CLR,,0.00,WeatherDisplay:10.37,2013-06-09 23:55:00,
2013-06-09 19:00:00,77.9,49.5,30.01,ENE,77,0.0,0.0,37,0.00,CLR,,0.00,WeatherDisplay:10.37,2013-06-10 00:00:00,
2013-06-09 19:05:00,77.7,49.4,30.01,East,99,0.0,0.0,37,0.00,CLR,,0.00,WeatherDisplay:10.37,2013-06-10 00:05:00,
2013-06-09 19:10:00,77.7,50.1,30.01,SSE,147,0.0,0.0,38,0.00,CLR,,0.00,WeatherDisplay:10.37,2013-06-10 00:10:00,
2013-06-09 19:15:00,77.5,50.6,30.01,SSE,149,0.0,0.0,39,0.00,CLR,,0.00,WeatherDisplay:10.37,2013-06-10 00:15:00,
2013-06-09 19:20:00,77.4,50.5,30.01,SSE,158,0.0,0.0,39,0.00,CLR,,0.00,WeatherDisplay:10.37,2013-06-10 00:20:00,
2013-06-09 19:30:00,77.1,50.9,30.01,SSE,150,0.0,0.0,40,0.00,CLR,,0.00,WeatherDisplay:10.37,2013-06-10 00:30:00,
2013-06-09 19:35:00,76.5,50.3,30.01,SE,139,0.0,0.0,40,0.00,CLR,,0.00,WeatherDisplay:10.37,2013-06-10 00:35:00,
2013-06-09 19:40:00,76.5,50.3,30.01,SE,135,0.0,0.0,40,0.00,CLR,,0.00,WeatherDisplay:10.37,2013-06-10 00:40:00,
2013-06-09 19:50:00,75.9,50.5,30.01,SE,135,0.0,0.0,41,0.00,CLR,,0.00,WeatherDisplay:10.37,2013-06-10 00:50:00,
2013-06-09 20:00:00,75.1,50.4,30.01,SE,135,0.0,0.0,42,0.00,CLR,,0.00,WeatherDisplay:10.37,2013-06-10 01:00:00,
2013-06-09 20:05:00,74.8,50.8,30.00,SE,135,0.0,0.0,43,0.00,CLR,,0.00,WeatherDisplay:10.37,2013-06-10 01:05:00,
2013-06-09 20:10:00,74.6,50.7,30.00,SE,135,0.0,0.0,43,0.00,CLR,,0.00,WeatherDisplay:10.37,2013-06-10 01:10:00,
2013-06-09 20:15:00,74.3,50.4,30.00,SE,135,0.0,0.0,43,0.00,CLR,,0.00,WeatherDisplay:10.37,2013-06-10 01:15:00,
2013-06-09 20:20:00,74.1,50.8,30.00,SE,135,0.0,0.0,44,0.00,CLR,,0.00,WeatherDisplay:10.37,2013-06-10 01:20:00,
2013-06-09 20:25:00,73.8,51.1,30.00,SE,135,0.0,0.0,45,0.00,CLR,,0.00,WeatherDisplay:10.37,2013-06-10 01:25:00,
2013-06-09 20:30:00,73.6,50.9,30.01,SE,135,0.0,0.0,45,0.00,CLR,,0.00,WeatherDisplay:10.37,2013-06-10 01:30:00,
2013-06-09 20:35:00,73.2,51.2,30.01,SE,135,0.0,0.0,46,0.00,CLR,,0.00,WeatherDisplay:10.37,2013-06-10 01:35:00,
2013-06-09 20:40:00,73.0,51.0,30.01,SE,135,0.0,0.0,46,0.00,CLR,,0.00,WeatherDisplay:10.37,2013-06-10 01:40:00,
2013-06-09 20:45:00,72.9,51.4,30.00,SE,135,0.0,0.0,47,0.00,CLR,,0.00,WeatherDisplay:10.37,2013-06-10 01:45:00,
2013-06-09 20:50:00,72.7,51.3,30.00,SE,135,0.0,0.0,47,0.00,CLR,,0.00,WeatherDisplay:10.37,2013-06-10 01:50:00,
2013-06-09 20:55:00,72.5,51.1,30.00,SE,135,0.0,0.0,47,0.00,CLR,,0.00,WeatherDisplay:10.37,2013-06-10 01:55:00,
2013-06-09 21:00:00,72.3,51.5,30.00,SE,135,0.0,0.0,48,0.00,CLR,,0.00,WeatherDisplay:10.37,2013-06-10 02:00:00,
2013-06-09 21:05:00,72.5,51.7,30.00,SE,135,0.0,0.0,48,0.00,CLR,,0.00,WeatherDisplay:10.37,2013-06-10 02:05:00,
2013-06-09 21:10:00,72.5,52.2,30.00,ESE,109,0.0,0.0,49,0.00,CLR,,0.00,WeatherDisplay:10.37,2013-06-10 02:10:00,
2013-06-09 21:20:00,72.7,52.4,30.00,ESE,112,0.0,0.0,49,0.00,CLR,,0.00,WeatherDisplay:10.37,2013-06-10 02:20:00,
2013-06-09 21:25:00,72.9,53.1,30.00,SE,125,0.0,0.0,50,0.00,CLR,,0.00,WeatherDisplay:10.37,2013-06-10 02:25:00,
2013-06-09 21:30:00,73.0,53.3,30.00,SE,145,0.0,0.0,50,0.00,CLR,,0.00,WeatherDisplay:10.37,2013-06-10 02:30:00,
2013-06-09 21:40:00,72.9,53.7,30.00,South,170,0.0,0.0,51,0.00,CLR,,0.00,WeatherDisplay:10.37,2013-06-10 02:40:00,
2013-06-09 21:45:00,72.9,53.7,30.00,South,173,0.0,0.0,51,0.00,CLR,,0.00,WeatherDisplay:10.37,2013-06-10 02:45:00,
2013-06-09 21:50:00,73.0,53.8,30.00,South,180,0.0,0.0,51,0.00,CLR,,0.00,WeatherDisplay:10.37,2013-06-10 02:50:00,
2013-06-09 21:55:00,73.0,54.4,30.00,South,173,0.0,0.0,52,0.00,CLR,,0.00,WeatherDisplay:10.37,2013-06-10 02:55:00,
2013-06-09 22:00:00,73.0,54.4,30.00,SSE,167,0.0,0.0,52,0.00,CLR,,0.00,WeatherDisplay:10.37,2013-06-10 03:00:00,
2013-06-09 22:10:00,73.0,54.4,30.00,SSE,154,0.0,0.0,52,0.00,CLR,,0.00,WeatherDisplay:10.37,2013-06-10 03:10:00,
2013-06-09 22:15:00,73.0,54.4,30.00,South,175,0.0,0.0,52,0.00,CLR,,0.00,WeatherDisplay:10.37,2013-06-10 03:15:00,
2013-06-09 22:20:00,73.0,54.4,30.00,SSE,158,0.0,0.0,52,0.00,CLR,,0.00,WeatherDisplay:10.37,2013-06-10 03:20:00,
2013-06-09 22:30:00,72.9,55.2,30.01,SE,126,2.0,6.0,54,0.00,CLR,,0.00,WeatherDisplay:10.37,2013-06-10 03:30:00,
2013-06-09 22:35:00,72.9,55.7,30.01,SE,134,0.0,0.0,55,0.00,CLR,,0.00,WeatherDisplay:10.37,2013-06-10 03:35:00,
2013-06-09 22:40:00,72.8,56.2,30.01,SE,132,2.0,6.0,56,0.00,CLR,,0.00,WeatherDisplay:10.37,2013-06-10 03:40:00,
2013-06-09 22:45:00,72.0,56.8,30.01,SE,132,6.0,8.0,59,0.00,CLR,,0.00,WeatherDisplay:10.37,2013-06-10 03:45:00,
2013-06-09 22:50:00,71.6,57.0,30.01,SSE,155,0.0,8.0,60,0.00,CLR,,0.00,WeatherDisplay:10.37,2013-06-10 03:50:00,
2013-06-09 22:55:00,70.9,57.2,30.01,South,178,8.0,8.0,62,0.00,CLR,,0.00,WeatherDisplay:10.37,2013-06-10 03:55:00,
2013-06-09 23:00:00,70.3,57.6,30.01,South,179,0.0,0.0,64,0.00,CLR,,0.00,WeatherDisplay:10.37,2013-06-10 04:00:00,
2013-06-09 23:05:00,70.2,58.7,30.01,SSE,157,0.0,5.0,67,0.00,CLR,,0.00,WeatherDisplay:10.37,2013-06-10 04:05:00,
2013-06-09 23:10:00,69.8,58.8,30.01,South,184,0.0,5.0,68,0.00,CLR,,0.00,WeatherDisplay:10.37,2013-06-10 04:10:00,
2013-06-09 23:15:00,69.4,58.8,30.02,South,186,0.0,0.0,69,0.00,CLR,,0.00,WeatherDisplay:10.37,2013-06-10 04:15:00,
2013-06-09 23:20:00,69.4,59.2,30.00,SSE,152,0.0,0.0,70,0.00,CLR,,0.00,WeatherDisplay:10.37,2013-06-10 04:20:00,
2013-06-09 23:25:00,69.3,59.5,30.00,SSE,159,0.0,0.0,71,0.00,CLR,,0.00,WeatherDisplay:10.37,2013-06-10 04:25:00,
2013-06-09 23:30:00,69.1,59.7,30.00,South,178,0.0,0.0,72,0.00,CLR,,0.00,WeatherDisplay:10.37,2013-06-10 04:30:00,
2013-06-09 23:35:00,68.9,59.5,30.00,SE,130,0.0,0.0,72,0.00,CLR,,0.00,WeatherDisplay:10.37,2013-06-10 04:35:00,
2013-06-09 23:40:00,68.9,59.9,30.00,ENE,76,0.0,0.0,73,0.00,CLR,,0.00,WeatherDisplay:10.37,2013-06-10 04:40:00,
2013-06-09 23:45:00,68.7,60.1,30.01,ENE,58,0.0,0.0,74,0.00,CLR,,0.00,WeatherDisplay:10.37,2013-06-10 04:45:00,
2013-06-09 23:50:00,68.7,60.5,30.01,ENE,74,0.0,0.0,75,0.00,CLR,,0.00,WeatherDisplay:10.37,2013-06-10 04:50:00,
2013-06-09 23:55:00,68.5,60.3,30.00,East,90,0.0,0.0,75,0.00,CLR,,0.00,WeatherDisplay:10.37,2013-06-10 04:55:00,